Regional Weather Roundup
Issued by NWS Sterling, VA

Home | Current Version | Previous Version | Graphics & Text | Print | Product List | Glossary On
Versions: 1 2 3 4 5 6 7 8 9 10 11 12 13 14 15 16 17 18 19 20 21 22 23 24 25 26 27 28 29 30 31 32 33 34 35 36 37 38 39 40 41 42 43 44 45 46 47 48 49 50
000
ASUS41 KLWX 241410
RWRLWX

REGIONAL WEATHER ROUNDUP
NATIONAL WEATHER SERVICE BALTIMORE MD/WASHINGTON DC
900 AM EST MON NOV 24 2014

Note: "FAIR" indicates few or no clouds below 12,000 feet
with no significant weather and/or obstructions to visibility.
 TC=TEMPERATURE CELSIUS

 * =Non NWS site. Station does not report precipitation (e.g. rain,
    snow, etc.), thunder, or fog.

DCZ001-MDZ009-015-VAZ040>042-051-053>054-241500-
WASHINGTON METRO

CITY           SKY/WX    TMP DP  RH WIND       PRES   REMARKS
WASHINGTON NAT MOSUNNY   67  58  72 S13G22    29.69S
DULLES         PTSUNNY   61  58  90 SW9       29.69R
ANDREWS AFB    SUNNY     67  60  79 S17       29.69S
FT BELVOIR     MOSUNNY   66  58  76 S10       29.70R
QUANTICO       PTSUNNY   60  54  80 SW16      29.71S
COLLEGE PARK*  SUNNY     68  59  73 SW6       29.68S
LEESBURG*      SUNNY     63  59  88 SW15G25   29.68R
MANASSAS*      CLOUDY    66  61  82 SW15      29.69R
GAITHERSBURG*  CLOUDY    64  57  77 S9        29.71R

$$

MDZ006>007-011-014-241500-
BALTIMORE METRO

CITY           SKY/WX    TMP DP  RH WIND       PRES   REMARKS
BWI AIRPORT    MOSUNNY   66  59  77 S8G22     29.67R
MD SCIENCE CTR   N/A     64  60  87 MISG      29.69R
MARTIN STATE   MOSUNNY   61  61 100 S8        29.70R
ANNAPOLIS      MOSUNNY   58  56  93 S9        29.70R
FORT MEADE*    SUNNY     64  57  77 SW13G24   29.70R

$$

MDZ012-015-019>023-241500-
MARYLAND EASTERN SHORE

CITY           SKY/WX    TMP DP  RH WIND       PRES   REMARKS
OCEAN CITY     FOG       59  59 100 SW12      29.76S VSB 1/2
SALISBURY      CLOUDY    70  64  81 SW18      29.75R
BAY BRIDGE AP*   N/A     64  61  88 S12G17    29.70S
CAMBRIDGE*     SUNNY     64  61  88 S10G17    29.73R
EASTON*        MOSUNNY   66  66 100 S14G25    29.75R

$$

MDZ017>025-241500-
SOUTHERN MARYLAND

CITY           SKY/WX    TMP DP  RH WIND       PRES   REMARKS
PATUXENT RIVER CLOUDY    66  61  84 S10       29.73R
ST INIGOES     CLOUDY    66  59  78 S14       29.74R
LEONARDTOWN*   CLOUDY    66  59  77 SW9G16    29.75R

$$

MDZ003>005-241500-
NORTH CENTRAL MARYLAND

CITY           SKY/WX    TMP DP  RH WIND       PRES   REMARKS
FREDERICK*     MOSUNNY   66  57  72 SW14G20   29.68R
HAGERSTOWN APT SUNNY     61  55  81 S10       29.61S
WESTMINSTER*   PTSUNNY   63  59  88 S16G26    29.65S

$$

MDZ501>502-241500-
WESTERN MARYLAND

CITY           SKY/WX    TMP DP  RH WIND       PRES   REMARKS
OAKLAND*       SUNNY     59  45  58 S15G25    29.58S
CUMBERLAND*    CLOUDY    48  48 100 CALM      29.63S VSB<1/4

$$

VAZ025>031-241500-
SHENANDOAH VALLEY

CITY           SKY/WX    TMP DP  RH WIND       PRES   REMARKS
WINCHESTER*    SUNNY     57  54  88 CALM      29.63S
FRONT ROYAL*   FAIR      57  54  88 SW3       29.63S
LURAY*         FAIR      63  57  82 SW13      29.65R
NEW MARKET*    PTSUNNY   59  54  82 SW15G21   29.67R
STAUNTON*      PTSUNNY   58  53  84 S10       29.70R
WAYNESBORO*    FAIR      59  52  78 S8        29.69R

$$

WVZ021-048>050-054>055-241500-
EASTERN WEST VIRGINIA PANHANDLE

CITY           SKY/WX    TMP DP  RH WIND       PRES   REMARKS
MARTINSBURG    SUNNY     58  53  84 S9        29.63R
PETERSBURG*    SUNNY     59  50  72 S8        29.61S

$$

VAZ036>039-050-241500-
CENTRAL FOOTHILLS

CITY           SKY/WX    TMP DP  RH WIND       PRES   REMARKS
CHARLOTTESVILL CLOUDY    59  55  87 S8        29.70S
CULPEPER*      MOSUNNY   63  57  82 SW10      29.70R
ORANGE*        PTSUNNY   63  55  77 S12G20    29.71S
GORDONSVILLE*  CLOUDY    60  56  85 MISG      29.70R
WARRENTON*     CLOUDY    64  62  93 S8        29.69R

$$

VAZ055>057-241500-
NORTH AND CENTRAL PIEDMONT

CITY           SKY/WX    TMP DP  RH WIND       PRES   REMARKS
FREDERICKSBRG* PTSUNNY   66  59  77 SW15      29.71R
STAFFORD*      CLOUDY    65  58  76 SW9G18    29.74S

$$

NCZ024-NYZ072-PAZ021-071-VAZ022-071-241500-
OTHER REGIONAL OBSERVATIONS

CITY           SKY/WX    TMP DP  RH WIND       PRES   REMARKS
NEW YORK CITY  CLOUDY    63  60  90 S3        29.71S
PHILADELPHIA   PTSUNNY   65  61  87 S10       29.69S
PITTSBURGH     MOSUNNY   62  52  69 S16       29.43F
ROANOKE        PTSUNNY   53  52  96 CALM      29.74R
RICHMOND       MOSUNNY   67  59  75 SW17      29.76R
RALEIGH        MOSUNNY   63  56  78 SW17G28   29.84R

$$

ANZ530>537-241500-
MARINE OBSERVATIONS

STATION/POSITION TIME  TEMP    WIND        PRES
                       AIR SEA DIR/SP/G
                 (UTC) (F)     (DEG/KT/KT) (MB)
THOMAS PT LIGHT  1400   55 48  170/ 19/ 20 1006.8R
BALT KEY BRIDGE  1400   62     160/ 10/ 12 1004.6R
COVE POINT       1400   56     190/ 11/ 11 1006.7R
LEWISETTA        1400   66 46  220/ 14/ 17 1006.9R
SOLOMONS ISLAND  1400      49                N/A
PINEY POINT      1400          220/ 15/ 17   N/A

$$




USA.gov is the U.S. government's official web portal to all federal, state and local government web resources and services.